User: anonymous   Login
Location: Caltech
(34.1382°N, 118.1253°W)
Time: 07:29:54
(UTC-08:00)
Language:

ITAMSAT 1 - Orbit

View from above orbital plane
View from above orbital plane
View from above satellite
View from above satellite

Ground track
Ground track

The orbit data is extracted from the following two-line orbital elements,

1 22826U 93061D   15029.09653174  .00000118  00000-0  63005-4 0  6334
2 22826 098.6870 339.4891 0008608 355.4253 004.6849 14.30136312113208
Epoch (UTC): 29 January 2015 02:19:00
Eccentricity: 0.0008608
inclination: 98.6870°
perigee height: 785 km
apogee height: 797 km
right ascension of ascending node: 339.4891°
argument of perigee: 355.4253°
revolutions per day: 14.30136312
mean anomaly at epoch: 4.6849°
orbit number at epoch: 11320

The dashed part of the orbit path shows where the satellite is in the earth's shadow,  

DLR